| time (UTC) | temp F | wind direction | speed knots | gust knots | rain 1hr in | rain 24hr in | rain mn in | humidity % | barometer mb |
| 20260902051633 | 78 | 0 | 0.0 | 0.0 | 0.00 | 0.00 | 0.00 | 96 | 1016.0 |
| 20260902051133 | 78 | 0 | 0.0 | 0.0 | 0.00 | 0.00 | 0.00 | 96 | 1016.0 |
| 20260902050451 | 78 | 0 | 0.0 | 0.0 | 0.00 | 0.00 | 0.00 | 96 | 1016.0 |
| 20260902050133 | 78 | 0 | 0.0 | 0.0 | 0.00 | 0.00 | 0.00 | 96 | 1016.0 |
| 20260902045603 | 78 | 0 | 0.0 | 0.0 | 0.00 | 0.00 | 0.00 | 96 | 1016.0 |
| 20260902045103 | 78 | 0 | 0.0 | 0.0 | 0.00 | 0.00 | 0.00 | 96 | 1016.0 |
| 20260902044603 | 78 | 0 | 0.0 | 0.0 | 0.00 | 0.00 | 0.00 | 96 | 1016.0 |
| 20260902044103 | 79 | 57 | 0.0 | 0.9 | 0.00 | 0.00 | 0.00 | 96 | 1016.1 |
| 20260902043533 | 79 | 57 | 0.0 | 0.9 | 0.00 | 0.00 | 0.00 | 95 | 1016.1 |
| 20260902043033 | 79 | 57 | 0.0 | 0.9 | 0.00 | 0.00 | 0.00 | 95 | 1016.2 |
| 20260902042818 | 79 | 0 | 0.0 | 0.0 | 0.00 | 0.00 | 0.00 | 95 | 1016.1 |
| 20260902042503 | 79 | 0 | 0.0 | 0.0 | 0.00 | 0.00 | 0.00 | 95 | 1016.1 |
| 20260902042356 | 79 | 0 | 0.0 | 0.0 | 0.00 | 0.00 | 0.00 | 94 | 1016.3 |
| 20260902041933 | 79 | 0 | 0.0 | 0.0 | 0.00 | 0.00 | 0.00 | 94 | 1016.3 |
| 20260902041744 | 80 | 0 | 0.0 | 0.9 | 0.00 | 0.00 | 0.00 | 94 | 1016.5 |
| 20260902041433 | 80 | 0 | 0.0 | 0.9 | 0.00 | 0.00 | 0.00 | 94 | 1016.5 |
| 20260902040333 | 80 | 57 | 0.0 | 0.9 | 0.00 | 0.00 | 0.00 | 93 | 1016.3 |
| 20260902033733 | 80 | 55 | 0.9 | 1.7 | 0.00 | 0.00 | 0.00 | 93 | 1016.6 |
| 20260902033233 | 80 | 55 | 0.0 | 1.7 | 0.00 | 0.00 | 0.00 | 93 | 1016.7 |
| 20260902032733 | 80 | 55 | 0.0 | 0.9 | 0.00 | 0.00 | 0.00 | 92 | 1016.6 |
| 20260902031903 | 81 | 55 | 0.0 | 0.9 | 0.00 | 0.00 | 0.00 | 91 | 1016.7 |
| 20260902031633 | 81 | 55 | 0.0 | 0.9 | 0.00 | 0.00 | 0.00 | 91 | 1016.7 |
| 20260902031133 | 81 | 56 | 0.0 | 1.7 | 0.00 | 0.00 | 0.00 | 91 | 1016.7 |
| 20260902030603 | 81 | 70 | 0.9 | 1.7 | 0.00 | 0.00 | 0.00 | 91 | 1016.7 |
| 20260902030326 | 81 | 79 | 1.7 | 2.6 | 0.00 | 0.00 | 0.00 | 91 | 1016.7 |
| 20260902030103 | 81 | 79 | 1.7 | 2.6 | 0.00 | 0.00 | 0.00 | 91 | 1016.7 |
| 20260902025533 | 81 | 81 | 1.7 | 5.2 | 0.00 | 0.00 | 0.00 | 91 | 1016.7 |
| 20260902025215 | 81 | 85 | 1.7 | 5.2 | 0.00 | 0.00 | 0.00 | 90 | 1016.8 |
| 20260902025003 | 81 | 85 | 1.7 | 5.2 | 0.00 | 0.00 | 0.00 | 90 | 1016.8 |
| 20260902024810 | 81 | 90 | 2.6 | 6.1 | 0.00 | 0.00 | 0.00 | 90 | 1016.9 |
| 20260902024433 | 81 | 90 | 2.6 | 6.1 | 0.00 | 0.00 | 0.00 | 90 | 1016.9 |
| 20260902023933 | 81 | 89 | 2.6 | 6.1 | 0.00 | 0.00 | 0.00 | 90 | 1016.9 |
| 20260902023721 | 82 | 89 | 2.6 | 5.2 | 0.00 | 0.00 | 0.00 | 90 | 1016.8 |
| 20260902023403 | 82 | 89 | 2.6 | 5.2 | 0.00 | 0.00 | 0.00 | 90 | 1016.8 |
| 20260902022333 | 82 | 82 | 1.7 | 7.0 | 0.00 | 0.00 | 0.00 | 89 | 1016.7 |
| 20260902021233 | 82 | 84 | 3.5 | 7.8 | 0.00 | 0.00 | 0.00 | 89 | 1016.5 |
| 20260902020133 | 82 | 86 | 3.5 | 7.8 | 0.00 | 0.00 | 0.00 | 89 | 1016.5 |
| 20260902015603 | 82 | 91 | 4.3 | 7.8 | 0.00 | 0.00 | 0.00 | 89 | 1016.5 |
| 20260902015033 | 82 | 96 | 5.2 | 8.7 | 0.00 | 0.00 | 0.00 | 89 | 1016.3 |
| 20260902014033 | 82 | 96 | 6.1 | 9.6 | 0.00 | 0.00 | 0.00 | 89 | 1016.4 |
| 20260902013533 | 82 | 93 | 4.3 | 9.6 | 0.00 | 0.00 | 0.00 | 90 | 1016.5 |
| 20260902013003 | 81 | 91 | 4.3 | 7.8 | 0.00 | 0.00 | 0.00 | 91 | 1016.4 |
| 20260902012503 | 81 | 94 | 4.3 | 7.8 | 0.00 | 0.00 | 0.00 | 91 | 1016.5 |
| 20260902011933 | 81 | 90 | 3.5 | 7.8 | 0.00 | 0.00 | 0.00 | 92 | 1016.4 |
| 20260902011433 | 81 | 90 | 2.6 | 7.0 | 0.00 | 0.00 | 0.00 | 92 | 1016.4 |
| 20260902005833 | 81 | 65 | 0.9 | 1.7 | 0.00 | 0.00 | 0.00 | 93 | 1016.4 |
| 20260902005333 | 81 | 65 | 0.9 | 1.7 | 0.00 | 0.00 | 0.00 | 92 | 1016.4 |
| 20260902004833 | 81 | 71 | 0.9 | 1.7 | 0.00 | 0.00 | 0.00 | 92 | 1016.4 |
| 20260902003607 | 81 | 58 | 0.9 | 1.7 | 0.00 | 0.00 | 0.00 | 92 | 1016.2 |
| 20260902003233 | 81 | 58 | 0.9 | 1.7 | 0.00 | 0.00 | 0.00 | 92 | 1016.2 |
| 20260902002733 | 81 | 48 | 0.9 | 1.7 | 0.00 | 0.00 | 0.00 | 91 | 1016.3 |
| 20260902002233 | 81 | 48 | 0.9 | 1.7 | 0.00 | 0.00 | 0.00 | 90 | 1016.2 |
| 20260902001623 | 81 | 63 | 0.9 | 1.7 | 0.00 | 0.00 | 0.00 | 90 | 1016.1 |
| 20260902001233 | 81 | 63 | 0.9 | 1.7 | 0.00 | 0.00 | 0.00 | 90 | 1016.1 |
| 20260902000234 | 81 | 77 | 0.9 | 1.7 | 0.00 | 0.00 | 0.00 | 90 | 1016.1 |
| 20260901232633 | 82 | 53 | 1.7 | 2.6 | 0.00 | 0.00 | 0.00 | 87 | 1015.8 |
| 20260901232133 | 82 | 50 | 1.7 | 2.6 | 0.00 | 0.00 | 0.00 | 87 | 1015.9 |
| 20260901231103 | 83 | 59 | 0.9 | 1.7 | 0.00 | 0.00 | 0.00 | 86 | 1015.7 |
| 20260901230603 | 83 | 54 | 0.9 | 1.7 | 0.00 | 0.00 | 0.00 | 85 | 1015.6 |
| 20260901230033 | 83 | 42 | 0.9 | 1.7 | 0.00 | 0.00 | 0.00 | 83 | 1015.7 |
| 20260901225503 | 83 | 54 | 1.7 | 3.5 | 0.00 | 0.00 | 0.00 | 83 | 1015.7 |
| 20260901225003 | 83 | 54 | 1.7 | 3.5 | 0.00 | 0.00 | 0.00 | 83 | 1015.6 |
| 20260901224808 | 84 | 46 | 1.7 | 3.5 | 0.00 | 0.00 | 0.00 | 84 | 1015.7 |
| 20260901224503 | 84 | 46 | 1.7 | 3.5 | 0.00 | 0.00 | 0.00 | 84 | 1015.7 |
| 20260901224003 | 84 | 44 | 1.7 | 3.5 | 0.00 | 0.00 | 0.00 | 86 | 1015.7 |
| 20260901223433 | 84 | 43 | 0.9 | 2.6 | 0.00 | 0.00 | 0.00 | 84 | 1015.7 |
| 20260901222933 | 85 | 35 | 0.9 | 2.6 | 0.00 | 0.00 | 0.00 | 84 | 1015.6 |
| 20260901222403 | 85 | 35 | 0.9 | 2.6 | 0.00 | 0.00 | 0.00 | 84 | 1015.7 |
| 20260901222138 | 85 | 39 | 0.9 | 2.6 | 0.00 | 0.00 | 0.00 | 83 | 1015.5 |
| 20260901221833 | 85 | 39 | 0.9 | 2.6 | 0.00 | 0.00 | 0.00 | 83 | 1015.5 |
| 20260901221333 | 85 | 44 | 1.7 | 2.6 | 0.00 | 0.00 | 0.00 | 83 | 1015.4 |
| 20260901220552 | 85 | 49 | 1.7 | 5.2 | 0.00 | 0.00 | 0.00 | 82 | 1015.4 |
| 20260901220233 | 85 | 49 | 1.7 | 5.2 | 0.00 | 0.00 | 0.00 | 82 | 1015.4 |
| 20260901214133 | 86 | 28 | 1.7 | 3.5 | 0.00 | 0.00 | 0.00 | 79 | 1015.4 |
| 20260901213820 | 86 | 40 | 1.7 | 4.3 | 0.00 | 0.00 | 0.00 | 79 | 1015.4 |
| 20260901213603 | 86 | 40 | 1.7 | 4.3 | 0.00 | 0.00 | 0.00 | 79 | 1015.4 |
| 20260901213033 | 86 | 68 | 2.6 | 7.8 | 0.00 | 0.01 | 0.00 | 79 | 1015.4 |
| 20260901212503 | 87 | 75 | 2.6 | 7.8 | 0.00 | 0.01 | 0.00 | 78 | 1015.3 |
| 20260901212003 | 87 | 67 | 2.6 | 7.0 | 0.00 | 0.01 | 0.00 | 80 | 1015.2 |
| 20260901211749 | 86 | 67 | 2.6 | 6.1 | 0.00 | 0.02 | 0.00 | 79 | 1015.2 |
| 20260901211503 | 86 | 67 | 2.6 | 6.1 | 0.00 | 0.02 | 0.00 | 79 | 1015.2 |
| 20260901211209 | 86 | 70 | 2.6 | 6.1 | 0.00 | 0.03 | 0.00 | 80 | 1015.2 |
| 20260901211003 | 86 | 70 | 2.6 | 6.1 | 0.00 | 0.03 | 0.00 | 80 | 1015.2 |
| 20260901210433 | 86 | 75 | 4.3 | 9.6 | 0.00 | 0.05 | 0.00 | 79 | 1015.4 |
| 20260901205333 | 88 | 61 | 3.5 | 7.0 | 0.00 | 0.07 | 0.00 | 76 | 1015.1 |
| 20260901203453 | 87 | 81 | 4.3 | 13.0 | 0.00 | 0.08 | 0.00 | 79 | 1015.1 |
| 20260901203233 | 87 | 81 | 4.3 | 13.0 | 0.00 | 0.08 | 0.00 | 79 | 1015.1 |
| 20260901202541 | 88 | 64 | 3.5 | 6.1 | 0.00 | 0.09 | 0.00 | 78 | 1015.3 |
| 20260901202233 | 88 | 64 | 3.5 | 6.1 | 0.00 | 0.09 | 0.00 | 78 | 1015.3 |
| 20260901201941 | 87 | 67 | 3.5 | 8.7 | 0.00 | 0.10 | 0.00 | 77 | 1015.4 |
| 20260901201733 | 87 | 67 | 3.5 | 8.7 | 0.00 | 0.10 | 0.00 | 77 | 1015.4 |
| 20260901200816 | 87 | 53 | 2.6 | 5.2 | 0.00 | 0.12 | 0.00 | 77 | 1015.5 |
| 20260901200633 | 87 | 53 | 2.6 | 5.2 | 0.00 | 0.12 | 0.00 | 77 | 1015.5 |
| 20260901200411 | 87 | 66 | 2.6 | 6.1 | 0.00 | 0.13 | 0.00 | 80 | 1015.5 |
| 20260901195749 | 87 | 74 | 3.5 | 7.8 | 0.00 | 0.15 | 0.00 | 83 | 1015.5 |
| 20260901195603 | 87 | 74 | 3.5 | 7.8 | 0.00 | 0.15 | 0.00 | 83 | 1015.5 |
| 20260901193623 | 85 | 70 | 0.9 | 7.0 | 0.00 | 0.15 | 0.00 | 84 | 1015.7 |
| 20260901193403 | 85 | 70 | 0.9 | 7.0 | 0.00 | 0.15 | 0.00 | 84 | 1015.7 |
| 20260901193111 | 85 | 55 | 0.9 | 2.6 | 0.00 | 0.15 | 0.00 | 83 | 1015.6 |
| 20260901192903 | 85 | 55 | 0.9 | 2.6 | 0.00 | 0.15 | 0.00 | 83 | 1015.6 |
| 20260901192333 | 84 | 83 | 2.6 | 7.0 | 0.00 | 0.15 | 0.00 | 84 | 1015.8 |
| 20260901191833 | 84 | 84 | 2.6 | 7.0 | 0.00 | 0.15 | 0.00 | 84 | 1015.8 |
| 20260901191333 | 85 | 81 | 2.6 | 6.1 | 0.00 | 0.15 | 0.00 | 84 | 1015.9 |
| 20260901184538 | 85 | 327 | 0.9 | 2.6 | 0.00 | 0.15 | 0.00 | 84 | 1016.2 |
| 20260901184233 | 85 | 327 | 0.9 | 2.6 | 0.00 | 0.15 | 0.00 | 84 | 1016.2 |
| 20260901183733 | 86 | 327 | 0.9 | 2.6 | 0.00 | 0.15 | 0.00 | 83 | 1016.2 |
| 20260901181803 | 86 | 18 | 0.9 | 3.5 | 0.00 | 0.15 | 0.00 | 84 | 1016.6 |
| 20260901181603 | 86 | 18 | 0.9 | 3.5 | 0.00 | 0.15 | 0.00 | 84 | 1016.6 |
| 20260901181226 | 86 | 16 | 1.7 | 3.5 | 0.00 | 0.15 | 0.00 | 85 | 1016.7 |
| 20260901181033 | 86 | 16 | 1.7 | 3.5 | 0.00 | 0.15 | 0.00 | 85 | 1016.7 |
| 20260901180744 | 86 | 350 | 1.7 | 2.6 | 0.00 | 0.15 | 0.00 | 86 | 1016.7 |
| 20260901180533 | 86 | 350 | 1.7 | 2.6 | 0.00 | 0.15 | 0.00 | 86 | 1016.7 |
| 20260901180208 | 85 | 348 | 1.7 | 2.6 | 0.00 | 0.15 | 0.00 | 84 | 1016.8 |
| 20260901180003 | 85 | 348 | 1.7 | 2.6 | 0.00 | 0.15 | 0.00 | 84 | 1016.8 |
| 20260901175503 | 85 | 349 | 0.9 | 2.6 | 0.00 | 0.15 | 0.00 | 82 | 1016.9 |
| 20260901175310 | 85 | 330 | 0.9 | 2.6 | 0.00 | 0.15 | 0.00 | 82 | 1016.9 |
| 20260901175003 | 85 | 330 | 0.9 | 2.6 | 0.00 | 0.15 | 0.00 | 82 | 1016.9 |
| 20260901174809 | 84 | 318 | 0.9 | 2.6 | 0.00 | 0.15 | 0.00 | 81 | 1016.8 |
| 20260901174503 | 84 | 318 | 0.9 | 2.6 | 0.00 | 0.15 | 0.00 | 81 | 1016.8 |
| 20260901174004 | 84 | 320 | 0.9 | 2.6 | 0.00 | 0.15 | 0.00 | 82 | 1016.9 |
| 20260901172933 | 84 | 7 | 1.7 | 2.6 | 0.00 | 0.15 | 0.00 | 82 | 1017.2 |
| 20260901172710 | 84 | 5 | 1.7 | 3.5 | 0.00 | 0.15 | 0.00 | 83 | 1017.3 |
| 20260901172433 | 84 | 5 | 1.7 | 3.5 | 0.00 | 0.15 | 0.00 | 83 | 1017.3 |
| 20260901171933 | 84 | 357 | 1.7 | 3.5 | 0.00 | 0.15 | 0.00 | 83 | 1017.3 |
| 20260901171701 | 84 | 352 | 1.7 | 3.5 | 0.00 | 0.15 | 0.00 | 86 | 1017.4 |
| 20260901171433 | 84 | 352 | 1.7 | 3.5 | 0.00 | 0.15 | 0.00 | 86 | 1017.4 |
| 20260901171208 | 84 | 359 | 1.7 | 3.5 | 0.00 | 0.15 | 0.00 | 86 | 1017.4 |
| 20260901170903 | 84 | 359 | 1.7 | 3.5 | 0.00 | 0.15 | 0.00 | 86 | 1017.4 |
| 20260901170333 | 84 | 25 | 2.6 | 3.5 | 0.00 | 0.15 | 0.00 | 85 | 1017.6 |
| 20260901170028 | 85 | 38 | 1.7 | 3.5 | 0.00 | 0.15 | 0.00 | 85 | 1017.5 |
| 20260901165833 | 85 | 38 | 1.7 | 3.5 | 0.00 | 0.15 | 0.00 | 85 | 1017.5 |
| 20260901165333 | 85 | 53 | 1.7 | 6.1 | 0.00 | 0.15 | 0.00 | 85 | 1017.6 |
| 20260901164833 | 85 | 60 | 1.7 | 6.1 | 0.00 | 0.15 | 0.00 | 84 | 1017.7 |
| 20260901163233 | 85 | 81 | 4.3 | 6.1 | 0.00 | 0.15 | 0.00 | 88 | 1017.7 |
| 20260901161632 | 85 | 80 | 4.3 | 11.3 | 0.00 | 0.15 | 0.00 | 87 | 1017.6 |
| 20260901160133 | 87 | 75 | 1.7 | 3.5 | 0.00 | 0.15 | 0.00 | 79 | 1017.6 |
| 20260901154102 | 89 | 64 | 0.9 | 2.6 | 0.00 | 0.15 | 0.00 | 79 | 1017.6 |
| 20260901153602 | 88 | 85 | 1.7 | 3.5 | 0.00 | 0.15 | 0.00 | 80 | 1017.6 |
| 20260901153302 | 88 | 92 | 1.7 | 3.5 | 0.00 | 0.15 | 0.00 | 79 | 1017.7 |
| 20260901153033 | 88 | 92 | 1.7 | 3.5 | 0.00 | 0.15 | 0.00 | 79 | 1017.7 |
| 20260901152502 | 88 | 74 | 0.9 | 3.5 | 0.00 | 0.15 | 0.00 | 81 | 1017.8 |
| 20260901152002 | 88 | 325 | 0.9 | 1.7 | 0.00 | 0.15 | 0.00 | 81 | 1017.8 |
| 20260901151747 | 87 | 346 | 0.9 | 2.6 | 0.00 | 0.15 | 0.00 | 80 | 1017.7 |
| 20260901151432 | 87 | 346 | 0.9 | 2.6 | 0.00 | 0.15 | 0.00 | 80 | 1017.7 |
| 20260901151138 | 87 | 9 | 1.7 | 3.5 | 0.00 | 0.15 | 0.00 | 82 | 1017.7 |
| 20260901150902 | 87 | 9 | 1.7 | 3.5 | 0.00 | 0.15 | 0.00 | 82 | 1017.7 |
| 20260901150402 | 87 | 31 | 1.7 | 3.5 | 0.00 | 0.15 | 0.00 | 85 | 1017.6 |
| 20260901145902 | 87 | 35 | 1.7 | 3.5 | 0.00 | 0.15 | 0.00 | 84 | 1017.7 |
| 20260901145754 | 86 | 56 | 1.7 | 3.5 | 0.00 | 0.15 | 0.00 | 86 | 1017.7 |
| 20260901145403 | 86 | 56 | 1.7 | 3.5 | 0.00 | 0.15 | 0.00 | 86 | 1017.7 |
| 20260901145139 | 86 | 60 | 0.9 | 2.6 | 0.00 | 0.15 | 0.00 | 87 | 1017.7 |
| 20260901144833 | 86 | 60 | 0.9 | 2.6 | 0.00 | 0.15 | 0.00 | 87 | 1017.7 |
| 20260901144332 | 85 | 43 | 0.9 | 2.6 | 0.00 | 0.15 | 0.00 | 88 | 1017.7 |
| 20260901143803 | 84 | 67 | 0.9 | 2.6 | 0.00 | 0.15 | 0.00 | 89 | 1017.7 |
| 20260901142732 | 83 | 46 | 0.9 | 2.6 | 0.00 | 0.15 | 0.00 | 94 | 1017.5 |
| 20260901142202 | 82 | 55 | 0.9 | 1.7 | 0.00 | 0.15 | 0.00 | 95 | 1017.5 |
| 20260901141132 | 81 | 77 | 0.9 | 1.7 | 0.00 | 0.15 | 0.00 | 95 | 1017.6 |
| 20260901140602 | 81 | 80 | 0.9 | 2.6 | 0.00 | 0.15 | 0.00 | 95 | 1017.5 |
| 20260901135032 | 80 | 88 | 1.7 | 3.5 | 0.00 | 0.15 | 0.00 | 97 | 1017.4 |
| 20260901134808 | 80 | 93 | 1.7 | 3.5 | 0.00 | 0.15 | 0.00 | 98 | 1017.3 |
| 20260901134533 | 80 | 93 | 1.7 | 3.5 | 0.00 | 0.15 | 0.00 | 98 | 1017.3 |
| 20260901134002 | 80 | 91 | 1.7 | 3.5 | 0.00 | 0.15 | 0.00 | 98 | 1017.4 |
| 20260901133432 | 80 | 90 | 1.7 | 2.6 | 0.00 | 0.15 | 0.00 | 99 | 1017.3 |
| 20260901132932 | 80 | 84 | 1.7 | 2.6 | 0.00 | 0.15 | 0.00 | 99 | 1017.1 |
| 20260901132402 | 79 | 75 | 0.9 | 2.6 | 0.00 | 0.15 | 0.00 | 99 | 1017.3 |
| 20260901131832 | 79 | 86 | 1.7 | 3.5 | 0.00 | 0.15 | 0.00 | 100 | 1017.1 |
| 20260901130233 | 79 | 63 | 0.9 | 2.6 | 0.00 | 0.15 | 0.00 | 100 | 1017.1 |
| 20260901125703 | 78 | 62 | 0.9 | 1.7 | 0.00 | 0.15 | 0.00 | 100 | 1017.1 |
| 20260901124103 | 77 | 37 | 0.9 | 1.7 | 0.00 | 0.15 | 0.00 | 100 | 1017.0 |
| 20260901123804 | 77 | 37 | 0.9 | 0.9 | 0.00 | 0.15 | 0.00 | 100 | 1017.0 |
| 20260901123602 | 77 | 37 | 0.9 | 0.9 | 0.00 | 0.15 | 0.00 | 100 | 1017.0 |
| 20260901122532 | 77 | 37 | 0.0 | 0.9 | 0.00 | 0.15 | 0.00 | 100 | 1017.0 |
| 20260901121718 | 77 | 37 | 0.0 | 1.7 | 0.00 | 0.15 | 0.00 | 100 | 1016.9 |
| 20260901121502 | 77 | 37 | 0.0 | 1.7 | 0.00 | 0.15 | 0.00 | 100 | 1016.9 |
| 20260901120708 | 77 | 0 | 0.0 | 0.0 | 0.00 | 0.15 | 0.00 | 100 | 1016.8 |
| 20260901120432 | 77 | 0 | 0.0 | 0.0 | 0.00 | 0.15 | 0.00 | 100 | 1016.8 |
| 20260901115902 | 77 | 0 | 0.0 | 0.0 | 0.00 | 0.15 | 0.00 | 100 | 1016.9 |
| 20260901115708 | 77 | 37 | 0.0 | 0.9 | 0.00 | 0.15 | 0.00 | 100 | 1016.8 |
| 20260901115402 | 77 | 37 | 0.0 | 0.9 | 0.00 | 0.15 | 0.00 | 100 | 1016.8 |
| 20260901115214 | 77 | 37 | 0.0 | 0.9 | 0.00 | 0.15 | 0.00 | 100 | 1016.8 |
| 20260901114902 | 77 | 37 | 0.0 | 0.9 | 0.00 | 0.15 | 0.00 | 100 | 1016.8 |
| 20260901114333 | 77 | 37 | 0.0 | 0.9 | 0.00 | 0.15 | 0.00 | 100 | 1016.7 |
| 20260901113803 | 77 | 37 | 0.0 | 0.9 | 0.00 | 0.15 | 0.00 | 100 | 1016.5 |
| 20260901111703 | 76 | 37 | 0.0 | 0.9 | 0.00 | 0.15 | 0.00 | 100 | 1016.5 |
| 20260901110728 | 76 | 37 | 0.0 | 1.7 | 0.00 | 0.15 | 0.00 | 100 | 1016.4 |
| 20260901110603 | 76 | 37 | 0.0 | 1.7 | 0.00 | 0.15 | 0.00 | 100 | 1016.4 |
| 20260901105603 | 77 | 37 | 0.9 | 1.7 | 0.00 | 0.15 | 0.00 | 100 | 1016.5 |
| 20260901104534 | 77 | 37 | 0.9 | 0.9 | 0.00 | 0.15 | 0.00 | 100 | 1016.3 |
| 20260901104256 | 77 | 37 | 0.9 | 1.7 | 0.00 | 0.15 | 0.00 | 100 | 1016.2 |
| 20260901104003 | 77 | 37 | 0.9 | 1.7 | 0.00 | 0.15 | 0.00 | 100 | 1016.2 |
| 20260901103502 | 77 | 37 | 0.9 | 1.7 | 0.00 | 0.15 | 0.00 | 100 | 1016.1 |
| 20260901103325 | 77 | 37 | 0.9 | 1.7 | 0.00 | 0.15 | 0.00 | 100 | 1016.2 |
| 20260901103003 | 77 | 37 | 0.9 | 1.7 | 0.00 | 0.15 | 0.00 | 100 | 1016.2 |
| 20260901102432 | 77 | 37 | 0.9 | 1.7 | 0.00 | 0.15 | 0.00 | 100 | 1016.2 |
| 20260901101933 | 77 | 37 | 0.0 | 0.9 | 0.00 | 0.15 | 0.00 | 100 | 1016.1 |
| 20260901101344 | 77 | 37 | 0.9 | 1.7 | 0.00 | 0.15 | 0.00 | 100 | 1016.0 |
| 20260901100932 | 77 | 37 | 0.9 | 1.7 | 0.00 | 0.15 | 0.00 | 100 | 1016.0 |
| 20260901100432 | 77 | 37 | 0.9 | 1.7 | 0.00 | 0.15 | 0.00 | 100 | 1016.0 |
| 20260901095902 | 77 | 37 | 0.0 | 0.9 | 0.00 | 0.15 | 0.00 | 100 | 1016.0 |
| 20260901095402 | 77 | 37 | 0.0 | 0.9 | 0.00 | 0.15 | 0.00 | 100 | 1015.9 |
| 20260901094902 | 77 | 37 | 0.9 | 0.9 | 0.00 | 0.15 | 0.00 | 100 | 1015.9 |
| 20260901094206 | 77 | 37 | 0.0 | 0.9 | 0.00 | 0.15 | 0.00 | 100 | 1015.6 |
| 20260901093902 | 77 | 37 | 0.0 | 0.9 | 0.00 | 0.15 | 0.00 | 100 | 1015.6 |
| 20260901093635 | 77 | 37 | 0.0 | 0.9 | 0.00 | 0.15 | 0.00 | 100 | 1015.7 |
| 20260901093402 | 77 | 37 | 0.0 | 0.9 | 0.00 | 0.15 | 0.00 | 100 | 1015.7 |
| 20260901093129 | 77 | 37 | 0.0 | 0.9 | 0.00 | 0.15 | 0.00 | 100 | 1015.6 |
| 20260901092833 | 77 | 37 | 0.0 | 0.9 | 0.00 | 0.15 | 0.00 | 100 | 1015.6 |
| 20260901092559 | 77 | 0 | 0.0 | 0.0 | 0.00 | 0.15 | 0.00 | 100 | 1015.6 |
| 20260901092333 | 77 | 0 | 0.0 | 0.0 | 0.00 | 0.15 | 0.00 | 100 | 1015.6 |
| 20260901092136 | 77 | 0 | 0.0 | 0.0 | 0.00 | 0.15 | 0.00 | 100 | 1015.6 |
| 20260901091833 | 77 | 0 | 0.0 | 0.0 | 0.00 | 0.15 | 0.00 | 100 | 1015.6 |
| 20260901091033 | 77 | 37 | 0.0 | 0.9 | 0.00 | 0.15 | 0.00 | 100 | 1015.5 |
| 20260901090732 | 77 | 37 | 0.0 | 0.9 | 0.00 | 0.15 | 0.00 | 100 | 1015.5 |
| 20260901084603 | 77 | 37 | 0.0 | 1.7 | 0.00 | 0.15 | 0.00 | 100 | 1015.5 |
| 20260901084325 | 77 | 37 | 0.0 | 1.7 | 0.00 | 0.15 | 0.00 | 100 | 1015.4 |
| 20260901084032 | 77 | 37 | 0.0 | 1.7 | 0.00 | 0.15 | 0.00 | 100 | 1015.4 |
| 20260901083502 | 77 | 37 | 0.0 | 1.7 | 0.00 | 0.15 | 0.00 | 100 | 1015.4 |
| 20260901083004 | 77 | 37 | 0.9 | 1.7 | 0.00 | 0.15 | 0.00 | 100 | 1015.4 |
| 20260901082503 | 77 | 37 | 0.9 | 1.7 | 0.00 | 0.15 | 0.00 | 100 | 1015.3 |
| 20260901082141 | 77 | 37 | 0.9 | 1.7 | 0.00 | 0.15 | 0.00 | 100 | 1015.3 |
| 20260901081932 | 77 | 37 | 0.9 | 1.7 | 0.00 | 0.15 | 0.00 | 100 | 1015.3 |
| 20260901081402 | 77 | 37 | 0.9 | 1.7 | 0.00 | 0.15 | 0.00 | 100 | 1015.4 |
| 20260901081131 | 77 | 37 | 0.9 | 1.7 | 0.00 | 0.15 | 0.00 | 100 | 1015.4 |
| 20260901080903 | 77 | 37 | 0.9 | 1.7 | 0.00 | 0.15 | 0.00 | 100 | 1015.4 |
| 20260901080708 | 77 | 37 | 0.0 | 1.7 | 0.00 | 0.15 | 0.00 | 100 | 1015.5 |
| 20260901080403 | 77 | 37 | 0.0 | 1.7 | 0.00 | 0.15 | 0.00 | 100 | 1015.5 |
| 20260901075832 | 77 | 37 | 0.0 | 1.7 | 0.00 | 0.15 | 0.00 | 100 | 1015.5 |
| 20260901075307 | 77 | 37 | 0.9 | 1.7 | 0.00 | 0.15 | 0.00 | 100 | 1015.5 |
| 20260901075033 | 77 | 37 | 0.9 | 1.7 | 0.00 | 0.15 | 0.00 | 100 | 1015.5 |
| 20260901074802 | 77 | 37 | 0.9 | 1.7 | 0.00 | 0.15 | 0.00 | 100 | 1015.5 |
| 20260901074302 | 77 | 37 | 0.0 | 1.7 | 0.00 | 0.15 | 0.00 | 100 | 1015.4 |
| 20260901071603 | 77 | 31 | 0.9 | 1.7 | 0.00 | 0.15 | 0.00 | 100 | 1015.8 |
| 20260901071311 | 77 | 13 | 0.9 | 1.7 | 0.00 | 0.15 | 0.00 | 100 | 1015.7 |
| 20260901071032 | 77 | 13 | 0.9 | 1.7 | 0.00 | 0.15 | 0.00 | 100 | 1015.7 |
| 20260901070532 | 77 | 6 | 0.9 | 1.7 | 0.00 | 0.15 | 0.00 | 100 | 1015.9 |
| 20260901070003 | 77 | 10 | 0.9 | 1.7 | 0.00 | 0.15 | 0.00 | 100 | 1015.9 |
| 20260901065503 | 77 | 18 | 0.0 | 1.7 | 0.00 | 0.15 | 0.00 | 99 | 1016.0 |
| 20260901064932 | 77 | 18 | 0.0 | 0.9 | 0.00 | 0.15 | 0.00 | 99 | 1016.1 |
| 20260901063332 | 77 | 26 | 0.9 | 1.7 | 0.00 | 0.15 | 0.00 | 99 | 1016.5 |
| 20260901062142 | 77 | 4 | 0.9 | 1.7 | 0.00 | 0.15 | 0.00 | 100 | 1016.7 |
| 20260901061732 | 77 | 4 | 0.9 | 1.7 | 0.00 | 0.15 | 0.00 | 100 | 1016.7 |
| 20260901061542 | 77 | 350 | 0.9 | 1.7 | 0.00 | 0.15 | 0.00 | 100 | 1016.9 |
| 20260901061233 | 77 | 350 | 0.9 | 1.7 | 0.00 | 0.15 | 0.00 | 100 | 1016.9 |
| 20260901060425 | 77 | 322 | 0.0 | 1.7 | 0.00 | 0.15 | 0.00 | 100 | 1017.2 |
| 20260901060132 | 77 | 322 | 0.0 | 1.7 | 0.00 | 0.15 | 0.00 | 100 | 1017.2 |
| 20260901054329 | 77 | 317 | 0.9 | 0.9 | 0.00 | 0.15 | 0.00 | 99 | 1017.3 |
| 20260901054102 | 77 | 317 | 0.9 | 0.9 | 0.00 | 0.15 | 0.00 | 99 | 1017.3 |
| 20260901053750 | 77 | 317 | 0.9 | 0.9 | 0.00 | 0.15 | 0.00 | 99 | 1017.2 |
| 20260901053532 | 77 | 317 | 0.9 | 0.9 | 0.00 | 0.15 | 0.00 | 99 | 1017.2 |
| 20260901053213 | 77 | 317 | 0.9 | 0.9 | 0.00 | 0.15 | 0.00 | 99 | 1017.3 |
| 20260901053002 | 77 | 317 | 0.9 | 0.9 | 0.00 | 0.15 | 0.00 | 99 | 1017.3 |
| 20260901052432 | 77 | 317 | 0.9 | 0.9 | 0.00 | 0.15 | 0.00 | 99 | 1017.5 |
| 20260901052154 | 77 | 317 | 0.0 | 0.9 | 0.00 | 0.15 | 0.00 | 99 | 1017.5 |
| 20260901051902 | 77 | 317 | 0.0 | 0.9 | 0.00 | 0.15 | 0.00 | 99 | 1017.5 |